ECMWFNIL_500_spd_306.txt.gz
Wind_Speed
57 55 54 52 52 53 53 53 53 54 56 58 60 62 63 63 62 61 61 61 61 60 60 59 59 58 58 58 58 59 59 59 58 56 54 54 56 59 61 61 60 59
57 55 52 50 50 51 52 52 52 53 55 56 57 59 60 60 60 59 59 60 60 61 61 61 61 60 60 59 59 61 61 61 60 58 56 56 57 57 58 59 59 58
56 55 53 50 50 52 53 53 52 52 53 55 56 57 58 58 58 58 58 59 59 59 59 59 60 60 60 59 59 60 61 61 61 60 59 59 60 59 59 58 58 59
53 53 53 52 52 54 55 53 51 50 51 53 54 55 56 57 58 58 58 59 60 60 59 58 59 60 60 59 60 60 61 62 62 63 63 63 65 65 65 62 61 61
51 50 51 52 53 54 54 53 52 51 50 51 53 54 55 56 57 57 57 58 59 60 60 59 60 60 60 60 61 61 61 62 62 63 63 63 64 66 67 65 63 62
50 48 49 50 49 49 52 53 54 53 52 53 54 55 56 57 58 58 58 59 60 60 61 62 62 63 63 63 63 62 62 63 63 63 63 63 63 63 63 63 62 61
50 50 51 50 51 54 57 57 56 56 56 56 55 56 56 57 58 59 60 61 63 64 65 65 65 65 65 64 63 63 63 63 63 63 62 62 61 60 60 60 59 59
51 54 55 55 58 63 64 62 60 59 59 58 57 57 57 57 57 57 58 60 62 65 67 67 67 67 66 65 63 63 62 61 60 60 59 59 58 58 57 56 56 56
56 58 59 60 64 67 67 65 63 61 59 59 59 58 57 57 57 57 57 58 59 62 66 67 67 66 65 63 61 60 59 59 59 58 58 57 56 55 54 53 53 53
57 59 60 62 64 65 65 65 64 62 59 57 57 57 57 57 56 55 56 58 59 61 63 63 62 61 59 58 58 58 58 58 59 58 57 56 55 54 53 53 53 54
56 59 60 62 63 63 63 61 61 60 59 56 54 53 54 55 55 55 56 57 59 59 59 59 58 58 58 58 58 59 59 59 59 58 56 55 55 55 55 56 56 56
63 62 62 61 61 61 60 59 58 56 55 55 54 52 52 53 53 54 55 56 57 58 57 57 58 58 59 60 61 61 61 60 58 56 55 55 56 56 57 57 58 58
67 65 62 59 59 58 58 58 56 54 53 54 54 55 56 56 55 54 55 56 57 58 58 58 58 59 60 62 63 62 60 58 56 55 56 57 58 59 60 59 59 59
66 66 64 62 60 59 59 57 54 52 52 54 55 56 58 59 58 57 56 55 56 58 60 60 60 61 61 61 61 59 57 56 56 57 58 60 62 64 64 62 62 61
63 64 64 63 61 60 61 59 55 54 54 55 56 56 56 58 58 57 57 57 57 58 60 61 61 61 60 59 58 58 58 59 60 61 62 63 65 67 66 65 64 64
61 61 62 61 60 59 60 59 58 57 56 55 55 56 56 57 59 59 59 59 59 59 60 61 61 61 60 60 61 62 62 64 65 67 67 67 68 68 67 67 67 66
59 58 59 59 58 58 59 58 58 59 58 57 56 57 58 59 61 62 62 61 61 61 62 63 64 64 64 65 66 67 67 68 69 70 69 68 68 68 68 68 69 69
56 55 56 55 54 54 55 56 58 59 60 61 60 60 61 62 62 62 63 63 63 64 64 64 66 67 68 68 69 71 71 71 71 70 69 69 69 70 70 71 73 74
56 56 57 57 57 56 56 56 58 59 60 61 62 62 62 62 61 61 61 62 64 65 66 66 67 69 70 71 71 73 73 73 71 70 70 71 72 74 75 76 77 78
58 59 60 61 62 62 63 62 62 62 61 61 62 63 63 63 63 63 63 64 65 67 68 70 71 73 74 75 75 75 75 75 74 74 74 75 77 78 79 79 79 80
61 61 61 62 62 63 65 65 65 65 65 65 65 67 68 68 68 68 69 69 70 71 73 74 76 76 77 78 78 78 78 78 77 77 78 79 80 81 81 81 82 82
61 62 63 63 63 63 64 64 65 65 66 67 68 70 71 73 73 74 74 74 75 76 77 78 79 79 79 80 80 80 80 80 80 80 81 81 82 82 83 83 83 84
61 62 63 64 64 64 64 64 65 66 66 67 69 70 72 73 75 75 76 77 78 79 80 80 81 82 81 82 82 83 83 83 83 83 83 83 84 84 84 84 85 85
62 63 64 65 66 66 67 67 67 68 68 68 69 70 71 73 74 75 76 78 79 80 81 82 83 84 85 85 86 87 87 87 87 86 85 85 85 86 86 86 86 86
63 64 64 65 66 67 68 68 68 69 69 69 70 70 71 72 73 74 76 77 79 80 81 82 83 85 86 86 87 87 88 88 87 87 86 86 86 86 86 86 86 86
62 62 63 64 65 66 66 67 68 69 69 70 70 71 71 72 73 74 75 76 78 79 81 82 83 84 84 85 85 86 86 86 86 85 85 84 84 84 84 84 83 83

ECMWFNIL_500_spd_312.txt.gz
Wind_Speed
76 77 77 78 79 79 80 81 82 82 83 83 83 82 79 76 74 72 70 68 67 66 65 65 66 66 65 63 61 61 62 66 68 68 69 69 69 70 71 72 72 71
76 76 77 78 79 80 81 82 83 83 83 83 82 81 78 75 73 71 68 66 65 65 64 64 66 66 64 62 61 61 63 66 68 68 68 69 69 70 71 72 71 69
75 76 77 79 80 81 82 83 84 83 83 82 80 78 75 73 72 70 68 66 65 64 63 63 63 62 62 61 61 62 62 62 63 64 65 65 64 63 63 65 65 63
76 78 79 81 82 83 84 84 84 83 82 80 78 76 73 72 71 70 69 67 64 62 61 60 59 59 59 60 61 64 65 63 62 61 60 59 58 57 56 57 59 59
78 80 81 82 84 84 85 84 83 82 81 79 77 75 73 72 71 70 69 65 62 60 60 59 60 61 60 62 64 65 67 68 65 61 58 58 58 58 57 58 58 58
80 82 83 84 85 85 84 83 82 81 79 77 75 73 72 71 70 69 68 64 61 60 61 61 62 62 62 66 68 68 67 67 66 62 60 60 60 59 59 58 58 57
81 83 84 85 85 84 83 82 81 79 77 75 73 70 70 70 69 67 65 62 61 62 63 64 64 64 65 69 71 70 68 66 64 63 61 60 60 60 59 59 59 58
81 83 84 84 84 83 82 80 79 77 75 73 71 69 69 68 66 64 62 60 60 62 65 67 67 68 70 72 74 73 69 66 64 62 61 60 59 59 58 58 58 58
81 82 83 83 82 81 80 79 77 75 73 71 70 69 67 65 63 62 61 60 61 63 67 69 69 69 69 70 72 72 69 65 62 60 59 58 58 58 58 58 58 58
81 82 82 82 81 80 78 77 75 73 71 69 68 67 66 64 63 62 62 63 64 66 69 71 71 70 68 66 66 66 64 62 59 57 56 56 56 57 57 58 58 59
81 81 81 80 79 78 76 75 73 71 69 68 67 66 65 64 63 63 63 64 66 67 69 71 72 72 70 66 63 62 61 59 58 56 54 55 56 56 57 58 59 59
81 80 80 79 77 76 74 73 71 69 67 66 65 65 64 63 63 63 64 66 68 69 70 71 71 70 68 65 62 61 60 60 60 59 57 56 57 58 59 59 59 59
80 79 78 77 76 74 73 71 69 67 65 65 64 64 63 63 63 63 64 66 68 69 69 69 68 66 64 62 60 59 59 60 61 60 59 58 58 59 60 61 60 60
79 78 77 76 75 73 71 69 67 65 64 63 63 63 63 63 63 63 63 64 65 65 65 64 62 61 59 58 58 58 58 59 59 59 59 59 59 59 60 61 61 60
78 77 76 75 73 71 70 68 66 65 64 63 62 62 62 62 61 61 62 62 63 63 63 62 60 59 57 56 56 57 57 58 58 58 59 60 61 62 62 63 63 64
77 76 75 74 72 70 69 67 66 65 63 62 61 60 60 60 60 60 60 61 62 62 62 62 61 60 58 57 57 57 57 57 56 57 58 60 62 63 63 64 65 66
77 75 74 73 71 70 68 67 65 64 63 61 60 59 59 59 59 59 58 59 60 60 61 62 62 61 61 61 60 59 59 57 56 56 57 58 59 61 63 64 65 66
75 74 72 71 70 68 67 66 64 63 62 60 59 59 58 58 58 58 58 58 59 59 60 61 61 62 63 63 63 62 61 60 59 58 59 59 59 60 62 63 65 65
74 72 71 69 68 67 66 64 63 62 61 60 60 59 59 59 59 59 59 59 59 59 60 60 61 62 63 64 65 65 65 64 63 62 62 61 61 61 62 63 64 65
72 70 69 68 67 66 64 63 62 61 60 59 59 60 60 60 60 59 59 59 59 60 60 61 62 62 63 64 65 66 66 66 66 66 66 66 66 66 66 66 66 66
70 69 67 66 66 64 63 62 61 60 60 59 59 59 59 60 60 60 60 60 60 60 60 61 62 63 63 64 65 66 66 67 67 67 68 68 69 70 71 71 71 71
69 68 67 65 65 63 62 62 61 60 60 59 58 58 58 59 59 59 59 59 60 60 60 60 62 62 63 63 64 65 65 66 67 67 68 68 69 70 72 74 75 76
69 68 66 65 64 63 62 61 61 61 60 60 59 58 58 58 58 58 58 58 59 59 60 60 61 62 63 63 64 65 65 65 66 67 68 68 69 70 71 73 75 76
68 67 66 65 64 63 62 62 61 61 61 61 61 60 59 59 59 58 58 58 58 59 60 60 61 62 63 63 64 65 66 66 66 67 67 68 69 69 70 71 73 75
68 67 67 66 65 65 64 63 62 62 62 62 62 62 61 61 60 60 60 59 59 60 60 60 60 61 63 63 64 65 65 66 67 68 68 69 70 70 70 71 72 73
68 68 67 67 66 65 64 64 63 63 63 63 63 63 63 62 62 62 61 61 61 61 61 61 61 62 63 63 64 64 65 66 66 67 68 69 70 71 72 72 73 74

ECMWFNIL_500_spd_318.txt.gz
Wind_Speed
56 57 58 59 60 60 61 62 63 64 65 66 66 67 68 69 69 70 71 71 71 71 71 72 72 73 73 73 73 73 74 75 75 76 77 77 78 78 78 78 78 76
58 59 60 60 61 62 63 64 65 66 67 67 68 68 69 70 71 71 72 72 72 72 73 73 73 73 73 73 73 74 74 75 76 76 77 77 77 78 77 77 76 74
59 60 61 62 62 63 64 65 66 67 68 68 69 70 71 71 72 72 73 73 73 74 74 74 73 73 73 73 73 74 75 75 76 76 77 77 77 76 76 75 73 72
61 61 62 63 63 64 65 66 67 68 69 70 71 72 72 73 73 73 74 74 75 75 75 74 74 74 74 74 74 74 75 75 76 76 76 77 76 75 75 73 72 71
62 62 62 63 64 65 66 67 68 70 71 72 72 73 73 73 74 74 75 75 76 75 75 75 75 75 75 75 75 75 75 75 75 75 75 75 75 74 73 72 71 69
62 63 63 64 65 66 67 69 70 71 72 73 73 73 73 74 74 75 76 76 76 76 76 76 76 76 76 76 76 75 75 74 74 74 74 73 72 72 71 70 69 68
62 63 64 65 66 67 69 70 71 72 72 73 73 73 74 74 75 76 76 77 77 77 77 77 77 77 77 76 76 75 75 74 74 74 73 72 71 71 70 69 67 66
63 64 66 67 68 68 70 71 71 72 72 73 73 73 74 75 75 76 77 77 77 77 77 77 77 77 76 76 75 75 74 74 74 73 73 72 71 70 69 68 67 66
64 66 67 67 68 69 70 71 71 72 72 73 73 74 74 75 76 77 77 77 77 77 77 77 77 76 75 75 74 74 74 73 73 73 72 72 71 70 69 68 67 66
65 66 67 68 69 70 70 71 72 72 72 73 74 75 76 77 77 78 78 78 77 77 77 76 76 75 75 74 73 73 73 73 73 73 72 72 71 70 69 67 66 65
65 66 67 68 69 70 71 72 72 72 73 74 75 76 77 78 78 78 78 78 77 77 77 76 75 75 74 73 73 72 72 72 73 73 73 72 71 69 68 67 66 65
65 66 68 69 70 71 72 72 73 74 74 75 76 77 78 79 79 79 79 79 78 77 76 76 75 74 74 73 73 73 73 73 73 73 73 72 70 69 67 66 66 65
66 67 68 70 71 72 72 73 74 75 75 76 77 78 79 80 80 80 80 79 78 77 76 76 75 74 74 74 74 74 73 73 74 73 73 71 70 68 67 66 65 64
67 69 70 71 72 73 74 75 75 76 77 77 79 80 80 81 81 80 80 79 78 77 77 76 75 75 75 75 75 74 74 74 74 73 72 71 69 68 67 66 65 64
69 70 71 72 73 74 75 76 77 77 78 79 80 81 82 82 81 81 80 79 78 77 77 76 76 76 75 75 75 75 75 74 74 73 72 70 68 68 67 67 65 64
70 72 73 74 75 76 77 77 78 79 80 81 82 82 83 82 82 81 80 78 78 77 77 77 77 77 77 76 76 76 75 75 74 73 71 70 68 68 67 67 66 64
72 73 74 75 76 77 78 79 79 80 81 82 83 83 83 83 82 81 80 79 78 77 77 78 78 78 78 77 77 77 76 76 74 72 71 69 68 68 67 67 66 65
74 75 76 77 78 79 79 80 81 82 82 83 84 84 83 82 81 80 80 79 79 78 78 78 78 79 79 78 78 77 77 76 74 72 70 68 68 68 67 67 66 66
75 76 77 78 79 80 81 81 82 83 83 84 84 84 83 82 81 81 80 79 79 79 78 78 79 79 79 78 78 78 77 76 74 71 69 67 67 68 68 67 67 66
76 78 79 80 81 81 82 82 83 84 85 85 85 84 83 82 82 81 81 81 81 80 80 79 80 80 80 79 79 78 77 76 73 71 69 67 66 67 67 67 67 66
78 79 80 81 82 82 83 83 84 85 85 85 85 84 83 82 82 82 82 82 82 82 81 80 80 81 81 80 80 79 77 75 73 70 68 67 66 66 66 66 66 66
80 81 82 82 83 83 84 84 85 85 85 84 83 82 81 81 81 82 82 82 82 82 82 81 81 81 81 81 80 78 77 74 72 69 67 66 65 64 65 65 66 66
81 82 82 83 83 84 84 85 85 84 83 83 82 81 81 81 81 81 82 82 82 81 81 80 80 80 81 80 79 78 76 73 71 69 67 65 64 64 65 65 66 66
82 83 83 84 85 85 85 85 84 84 83 82 82 82 81 82 82 82 82 82 81 81 80 80 79 79 79 79 78 77 75 73 72 70 68 66 65 65 66 66 67 67
83 84 85 85 86 86 86 85 84 84 84 83 83 83 83 83 83 82 82 81 81 80 80 80 79 79 79 79 78 77 76 75 73 71 69 68 67 67 67 67 67 68
84 85 86 87 87 86 86 85 85 85 85 84 84 84 84 83 83 83 82 81 81 81 81 81 80 80 79 79 78 77 77 76 75 73 71 70 69 68 68 68 68 68

ECMWFNIL_500_spd_324.txt.gz
Wind_Speed
65 66 67 67 67 67 66 64 61 60 59 59 59 59 59 60 60 60 60 60 60 59 58 57 57 57 57 58 59 59 60 61 62 63 64 65 66 67 68 69 70 71
65 67 68 68 68 66 63 60 58 57 57 57 58 58 59 59 60 60 60 60 59 58 57 57 57 57 58 59 59 60 61 62 63 64 65 66 67 69 70 70 71 72
65 67 67 67 65 62 59 56 55 55 55 56 57 58 58 59 59 59 59 59 58 57 56 56 57 57 58 59 60 61 63 64 65 66 67 68 69 70 71 72 73 74
66 66 65 64 61 58 55 54 54 55 55 56 56 57 57 57 58 58 58 58 57 57 57 57 57 58 59 60 61 62 64 65 66 67 68 69 70 71 72 73 74 75
65 65 64 62 59 57 56 55 55 55 54 54 55 55 56 57 57 58 58 58 58 58 58 58 58 59 60 61 63 64 65 66 67 68 69 71 72 73 74 75 76 77
63 63 62 61 60 58 57 56 55 54 53 53 54 55 56 57 58 58 58 58 59 59 59 59 60 61 62 63 64 65 66 67 68 70 71 72 73 74 75 77 78 79
59 60 60 60 59 57 56 55 53 52 52 52 54 56 57 58 59 59 59 59 60 61 61 61 62 63 63 64 66 67 68 68 70 71 72 74 75 76 77 79 80 81
57 59 59 58 57 55 54 54 53 52 53 54 56 58 59 61 61 61 61 61 62 62 63 63 64 65 65 66 67 68 69 70 72 73 74 76 77 78 79 80 81 82
58 59 58 55 54 53 54 56 57 57 57 59 61 62 63 64 65 65 64 64 64 65 65 66 66 67 67 68 69 70 71 72 74 75 76 78 79 80 81 82 83 84
58 57 54 52 53 55 58 62 63 63 64 65 66 67 68 69 69 68 67 67 67 67 68 68 68 69 69 70 71 72 73 75 76 77 78 80 81 82 83 84 84 85
54 52 52 53 57 61 65 68 69 69 69 70 71 72 73 74 73 72 71 71 71 71 71 71 70 71 71 72 73 74 75 77 78 79 80 81 83 83 84 85 86 87
52 53 55 59 63 67 70 72 72 73 74 74 75 75 75 78 78 76 75 74 74 73 73 73 72 73 73 74 75 76 77 78 79 81 82 83 84 85 86 87 88 88
54 58 62 66 69 71 72 73 74 75 76 76 77 76 77 81 81 79 78 77 76 76 75 74 74 75 76 76 78 79 80 80 82 83 84 85 86 87 88 89 89 89
61 65 68 71 72 73 74 74 75 77 78 78 78 77 80 83 84 81 80 79 78 77 76 76 77 77 78 79 80 81 82 83 84 85 86 87 88 89 90 90 90 89
67 70 72 73 73 74 75 76 78 80 80 80 79 79 82 85 85 83 82 80 79 78 78 78 79 79 80 81 82 83 84 85 86 87 88 89 90 91 91 91 90 91
69 71 72 73 73 75 76 78 81 82 82 81 81 81 84 87 86 84 82 81 80 80 80 80 81 82 82 83 84 85 86 87 88 89 90 91 91 91 91 91 91 92
70 71 72 73 74 76 78 80 82 83 82 82 83 84 86 87 86 84 83 82 81 81 81 82 83 84 84 85 86 87 88 89 90 91 92 93 92 91 91 92 92 94
68 69 71 73 75 77 79 81 82 82 83 84 85 87 88 88 85 84 83 82 82 82 82 83 84 85 86 87 88 89 91 92 93 94 94 93 93 92 93 94 95 95
67 70 72 74 77 79 81 82 82 83 85 86 87 88 88 87 85 84 83 83 83 83 84 85 86 87 88 89 91 92 94 95 95 96 95 94 94 95 96 97 97 97
69 72 75 78 80 81 82 83 85 86 87 88 88 88 87 85 85 84 83 84 84 85 86 87 88 89 91 92 94 95 96 97 97 96 96 96 97 98 99 99 99 99
73 76 78 80 82 83 84 85 86 87 87 86 86 86 85 84 84 84 84 85 86 86 87 89 90 92 93 95 96 97 98 98 97 97 97 98 99 100 101 101 101 100
77 79 81 82 83 84 85 85 85 85 84 84 84 84 84 84 84 84 85 86 87 88 89 91 93 94 96 97 98 98 98 98 98 98 99 100 100 101 101 101 101 101
78 79 80 81 82 82 82 82 82 82 82 82 82 83 83 84 84 85 86 86 88 90 91 93 95 96 98 99 99 99 99 99 100 100 100 101 101 102 102 102 101 101
77 78 79 79 80 80 80 80 80 80 80 81 81 82 83 84 85 86 87 88 90 92 94 95 97 98 100 100 100 100 100 101 101 101 101 102 102 102 102 101 101 100
76 76 77 77 77 78 78 78 78 79 80 80 81 82 83 85 86 87 89 91 93 94 96 98 99 100 100 100 100 101 101 102 102 102 102 102 102 101 101 100 100 99
75 75 75 75 76 76 76 77 78 79 80 81 82 83 84 86 87 89 91 93 94 96 98 99 100 100 101 101 102 102 102 103 103 103 102 102 102 101 101 99 98 98

ECMWFNIL_500_spd_330.txt.gz
Wind_Speed
55 56 57 57 58 58 58 59 59 59 60 60 61 61 61 61 61 59 58 56 56 55 56 56 56 57 58 58 57 56 55 54 53 53 52 52 52 51 50 50 50 50
55 56 57 58 58 59 59 60 61 61 62 62 62 63 62 62 61 59 57 56 55 55 56 56 56 56 56 56 55 53 52 52 52 51 51 50 49 48 47 47 47 47
55 56 57 58 59 60 60 61 62 62 63 63 63 63 63 62 61 58 56 55 54 55 55 55 54 54 54 53 52 52 52 52 51 50 49 48 47 47 47 47 48 48
55 56 57 58 59 60 61 62 63 63 64 64 64 64 63 62 60 58 55 54 54 54 53 52 50 51 52 52 52 52 53 53 51 51 50 49 48 49 50 51 52 53
54 56 57 58 59 60 61 62 63 63 64 64 64 64 63 61 59 56 55 54 53 52 50 48 47 49 51 52 52 53 53 53 52 52 51 51 52 54 55 56 57 58
51 54 56 58 59 60 61 62 63 63 63 63 62 61 61 59 57 56 55 53 51 49 46 45 46 48 50 52 53 53 54 54 54 53 53 54 56 58 60 61 62 63
46 49 51 54 56 58 59 60 61 61 61 61 60 60 59 58 56 55 54 53 51 48 45 46 48 49 50 52 53 54 55 55 55 55 57 59 61 62 64 65 66 66
45 46 48 50 52 54 55 57 58 59 59 59 60 59 59 58 58 57 55 52 51 49 47 48 50 51 52 54 55 56 57 57 57 59 61 63 64 65 67 68 68 68
46 47 48 49 51 52 53 54 56 58 59 59 59 59 58 58 58 58 57 55 52 50 49 50 52 54 55 56 56 57 57 59 61 62 64 65 66 68 69 69 70 70
47 49 50 51 52 53 53 55 56 57 58 59 58 58 57 56 55 55 56 57 56 53 53 53 55 56 57 58 58 58 59 61 63 64 66 68 69 70 70 70 71 72
48 50 51 53 54 54 54 55 54 55 56 56 56 55 55 55 55 54 54 57 58 56 56 57 58 58 59 59 59 60 61 62 64 66 69 70 70 70 71 71 72 73
46 48 50 52 53 54 54 54 53 54 54 54 54 54 54 54 55 56 55 57 58 57 57 58 59 59 60 60 61 61 63 65 67 69 69 69 69 70 71 72 74 76
46 47 48 50 51 52 52 52 53 53 52 51 52 52 53 53 54 55 56 57 57 57 58 59 60 61 62 62 63 64 65 66 67 68 68 69 70 71 73 75 77 79
47 47 47 48 49 50 51 52 52 52 52 52 53 53 54 54 54 55 55 56 57 58 59 60 61 62 63 64 65 65 65 65 66 67 69 71 73 74 76 78 80 81
47 47 46 46 48 50 52 54 54 53 52 52 52 53 54 53 54 54 55 56 57 59 60 61 62 63 63 63 63 63 64 65 67 70 72 74 75 77 79 80 81 83
46 46 45 46 48 51 53 54 54 54 53 52 52 54 54 53 53 54 55 56 58 58 59 60 60 60 60 61 62 63 65 69 71 73 75 76 77 79 80 82 83 84
46 45 43 45 48 50 50 50 50 50 50 50 51 53 53 53 53 54 55 56 57 57 58 58 59 59 60 62 64 67 70 72 74 75 76 78 79 81 82 83 84 84
44 43 42 44 44 44 43 43 44 45 46 47 49 50 51 52 54 55 56 56 57 57 57 58 59 62 64 66 69 71 73 75 76 77 79 80 81 82 83 84 84 84
41 41 41 41 39 38 39 41 42 44 45 46 48 49 51 53 54 54 55 56 56 57 58 61 63 66 68 71 73 74 75 76 78 79 81 82 82 83 83 83 83 83
38 38 38 38 37 38 39 40 41 42 44 45 47 49 51 52 53 54 55 56 58 60 62 65 68 70 72 74 75 76 78 79 81 81 82 82 83 83 84 84 84 84
37 37 37 37 37 38 38 39 39 40 42 44 47 50 52 53 55 56 58 60 62 65 67 69 71 73 74 76 77 79 80 81 82 82 82 83 83 84 84 84 84 85
37 38 38 37 37 37 37 37 38 40 43 47 50 53 55 56 58 60 62 64 67 68 70 72 73 75 76 78 79 80 81 81 81 82 82 83 83 84 84 85 85 86
38 39 39 37 36 35 35 36 39 42 47 50 53 55 57 59 62 64 66 68 70 71 73 74 76 77 79 79 80 80 80 81 81 82 82 83 83 84 85 86 87 88
38 38 38 36 35 35 36 39 43 47 51 54 56 58 60 62 64 67 68 70 72 73 75 77 78 79 80 80 80 80 80 81 81 82 83 84 84 85 86 87 87 88
37 37 36 35 35 36 39 44 47 51 53 56 58 60 62 65 67 69 71 73 74 76 78 79 80 80 80 80 80 80 81 81 82 83 84 84 85 85 86 87 87 89
37 36 34 35 37 40 44 47 50 52 55 57 60 63 65 68 70 72 73 75 76 78 79 79 79 79 79 80 80 81 82 82 83 84 84 85 85 86 87 88 89 90